Location: Mountain View
(37.3861°N, 122.0839°W)
Time: 15:21:02
(UTC-07:00)

N. Korean satellite - Visible Passes

Search period start: 18 October 2017 00:00
Search period end: 28 October 2017 00:00
Orbit: 459 x 517 km, 97.2° (Epoch: 18 October)

Date Brightness Start Highest point End Pass type
(mag) Time Alt. Az. Time Alt. Az. Time Alt. Az.
18 Oct 7.6 19:32:50 10° S 19:36:16 47° W 19:39:41 10° NNW visible
19 Oct 6.4 19:09:25 10° SSE 19:12:56 76° ENE 19:16:27 10° N visible
20 Oct 7.1 18:46:28 10° SE 18:49:41 34° ENE 18:52:52 10° N visible
20 Oct 10.1 20:22:15 10° WSW 20:23:19 11° W 20:24:23 10° WNW visible
21 Oct 9.2 19:57:02 10° SSW 19:59:50 22° W 20:02:37 10° NW visible
22 Oct 7.6 19:33:02 10° S 19:36:26 46° W 19:39:47 10° NNW visible
23 Oct 6.4 19:09:36 10° SSE 19:13:05 77° ENE 19:16:34 10° N visible
24 Oct 7.1 18:46:37 10° SE 18:49:48 34° ENE 18:52:59 10° N visible
24 Oct 10.1 20:22:34 10° WSW 20:23:27 11° W 20:24:20 10° WNW visible
25 Oct 9.2 19:57:13 10° SSW 19:59:57 22° W 20:02:42 10° NW visible
26 Oct 7.6 19:33:11 10° S 19:36:32 45° W 19:39:52 10° NNW visible
27 Oct 6.3 19:09:42 10° SSE 19:13:10 78° ENE 19:16:38 10° N visible
